Home   Weather   Orange   Past weeks
Flag for Australia

Past Weather in Orange, New South Wales, Australia — Yesterday and Last 2 Weeks

Now
59 °F

Overcast.


Feels Like: 59 °F
Forecast: 64 / 44 °F
Wind: 3 mph from Northwest

Location: Bathurst Airport Aws

Current Time: May 21, 2019 at 7:22:07 pm

Latest Report: May 21, 2019 at 6:00 pm


Visibility: N/A

Pressure: 30.34 "Hg (27.38 "Hg at 863m altitude)

Humidity: 66%

Dew Point: 47 °F

Location of OrangeLocation

Past Weather in Orange — Graph

°F

Orange Temperature Yesterday

Maximum temperature yesterday: 67 °F (at 2:00 pm)
Minimum temperature yesterday: 42 °F (at 6:00 am)
Average temperature yesterday: 52 °F

High & Low Weather Summary for the Past Weeks

 TemperatureHumidityPressure
High68 °F (May 21, 2:00 pm)100% (May 7, 1:00 am)30.49 "Hg (May 7, 1:00 am)
Low31 °F (May 13, 6:00 am)30% (May 14, 3:00 pm)29.90 "Hg (May 8, 5:00 am)
Average48 °F82%30.27 "Hg
* Reported May 6 6:00 pm — May 21 6:00 pm, Orange. Weather by CustomWeather, © 2019

Note: Actual official high and low records may vary slightly from our data, if they occured in-between our weather recording intervals... More about our weather records

Advertising

Orange Weather History for the Previous 24 Hours

Scroll right to see more
 ConditionsComfort  
Time TempWeatherWind HumidityBarometerVisibility
6:00 pm
Tue, May 21
59 °FOvercast.3 mph66%30.34 "HgN/A
5:00 pm61 °FCool.5 mph62%30.32 "HgN/A
4:00 pm66 °FMild.10 mph53%30.30 "HgN/A
3:00 pm68 °FOvercast.9 mph51%30.29 "HgN/A
2:00 pm68 °FMild.3 mph49%30.30 "HgN/A
1:00 pm67 °FMild.7 mph55%30.31 "HgN/A
12:00 pm67 °FMild.9 mph56%30.34 "HgN/A
11:00 am63 °FMild.5 mph67%30.37 "HgN/A
10:00 am55 °FCool.No wind81%30.38 "HgN/A
9:00 am51 °FCool.1 mph87%30.38 "HgN/A
8:00 am43 °FQuite cool.3 mph99%30.37 "HgN/A
7:00 am40 °FChilly.3 mph100%30.35 "HgN/A
6:00 am39 °FChilly.No wind100%30.34 "HgN/A
5:00 am39 °FChilly.No wind99%30.32 "HgN/A
4:00 am41 °FQuite cool.3 mph99%30.31 "HgN/A
3:00 am43 °FQuite cool.1 mph99%30.31 "HgN/A
2:00 am41 °FQuite cool.1 mph98%30.31 "HgN/A
1:00 am44 °FQuite cool.1 mph99%30.32 "HgN/A
12:00 am46 °FCool.6 mph92%30.33 "HgN/A
11:00 pm
Mon, May 20
49 °FCool.2 mph90%30.34 "HgN/A
10:00 pm48 °FCool.No wind92%30.34 "HgN/A
9:00 pm50 °FCool.6 mph82%30.33 "HgN/A
8:00 pm51 °FCool.6 mph78%30.32 "HgN/A
7:00 pm53 °FCool.6 mph72%30.32 "HgN/A
Weather by CustomWeather, © 2019

See weather overview